GW1838 Weather Reports


Display with metric or nautical units.
time (UTC)temp
F
wind
direction
speed
MPH
gust
MPH
rain 1hr
in
rain 24hr
in
rain mn
in
humidity
%
barometer
mb
20260831214805 75 94 2.0 6.0 0.00 0.54 0.54 80 1017.7
20260831214306 75 99 4.0 6.0 0.00 0.54 0.54 80 1017.7
20260831213805 75 109 5.0 7.0 0.00 0.54 0.54 79 1017.7
20260831211807 75 109 6.0 9.0 0.00 0.54 0.54 80 1017.8
20260831211306 75 105 5.0 9.0 0.00 0.54 0.54 79 1017.9
20260831204305 75 91 5.0 9.0 0.00 0.54 0.54 79 1018.1
20260831200806 75 97 4.0 7.0 0.00 0.54 0.54 79 1018.5
20260831200305 75 100 3.0 7.0 0.00 0.54 0.54 79 1018.5
20260831195306 75 92 6.0 7.0 0.00 0.54 0.54 78 1018.5
20260831194306 76 101 5.0 7.0 0.00 0.54 0.54 77 1018.4
20260831191306 76 77 5.0 9.0 0.00 0.54 0.54 77 1018.7
20260831190806 76 92 4.0 9.0 0.00 0.54 0.54 78 1018.7
20260831190305 76 66 5.0 8.0 0.00 0.54 0.54 77 1018.7
20260831185306 77 56 5.0 9.0 0.00 0.54 0.54 77 1018.8
20260831184805 77 47 6.0 10.0 0.00 0.54 0.54 76 1018.7
20260831183805 77 44 5.0 10.0 0.00 0.54 0.54 76 1018.8
20260831183305 77 78 5.0 10.0 0.00 0.54 0.54 76 1018.8
20260831182806 78 76 5.0 9.0 0.00 0.54 0.54 75 1018.8
20260831182306 79 84 4.0 9.0 0.00 0.54 0.54 73 1018.9
20260831180305 78 85 5.0 9.0 0.00 0.54 0.54 75 1018.9
20260831175306 78 71 5.0 10.0 0.00 0.54 0.54 75 1018.9
20260831174805 78 101 5.0 10.0 0.00 0.54 0.54 75 1018.9
20260831172805 78 79 5.0 9.0 0.00 0.54 0.54 75 1018.8
20260831172306 77 51 5.0 8.0 0.00 0.54 0.54 76 1018.9
20260831171806 77 83 4.0 9.0 0.00 0.54 0.54 76 1018.9
20260831171305 77 77 6.0 12.0 0.00 0.54 0.54 76 1019.0
20260831170306 77 94 5.0 9.0 0.00 0.54 0.54 75 1018.9
20260831164806 78 61 3.0 7.0 0.00 0.54 0.54 76 1019.0
20260831163805 79 94 5.0 8.0 0.00 0.54 0.54 75 1019.1
20260831163305 79 102 4.0 9.0 0.00 0.54 0.54 76 1019.1
20260831162306 79 104 6.0 10.0 0.00 0.54 0.54 76 1019.1
20260831161805 78 62 6.0 10.0 0.00 0.54 0.54 77 1019.1
20260831161305 78 70 6.0 10.0 0.00 0.54 0.54 77 1019.2
20260831160305 78 55 6.0 12.0 0.00 0.54 0.54 78 1019.2
20260831155306 77 80 8.0 12.0 0.00 0.54 0.54 77 1019.1
20260831154805 77 61 6.0 10.0 0.00 0.54 0.54 77 1019.0
20260831152306 77 63 5.0 10.0 0.00 0.54 0.54 77 1019.1
20260831151805 78 53 5.0 9.0 0.00 0.54 0.54 77 1019.2
20260831151305 78 80 5.0 7.0 0.00 0.54 0.54 78 1019.2
20260831145805 77 98 5.0 10.0 0.00 0.54 0.54 80 1018.9
20260831144805 77 102 5.0 8.0 0.00 0.54 0.54 82 1018.9
20260831143305 76 98 6.0 9.0 0.00 0.54 0.54 83 1019.0
20260831142806 76 84 5.0 10.0 0.00 0.54 0.54 83 1019.1
20260831141805 76 100 4.0 7.0 0.00 0.54 0.54 84 1019.1
20260831135805 75 74 5.0 12.0 0.00 0.54 0.54 82 1019.2
20260831135306 75 67 6.0 12.0 0.00 0.54 0.54 82 1019.1
20260831134805 75 74 4.0 8.0 0.00 0.54 0.54 83 1019.2
20260831132805 75 82 5.0 8.0 0.00 0.54 0.54 82 1018.9
20260831131805 75 75 3.0 6.0 0.00 0.54 0.54 82 1018.8
20260831131305 75 60 5.0 7.0 0.00 0.54 0.54 81 1018.8
20260831130305 75 72 5.0 9.0 0.00 0.54 0.54 81 1018.7
20260831125306 75 61 4.0 10.0 0.00 0.54 0.54 81 1018.8
20260831124806 75 53 5.0 10.0 0.00 0.54 0.54 81 1018.9
20260831123305 74 68 5.0 12.0 0.00 0.54 0.54 82 1018.8
20260831122306 74 54 5.0 12.0 0.00 0.54 0.54 84 1018.9
20260831121805 74 48 5.0 10.0 0.00 0.54 0.54 85 1018.9
20260831115306 74 43 3.0 5.0 0.00 0.54 0.54 86 1018.5
20260831113805 73 52 3.0 6.0 0.00 0.54 0.54 87 1018.6
20260831112805 73 40 3.0 5.0 0.00 0.54 0.54 88 1018.7
20260831112307 73 48 3.0 5.0 0.00 0.54 0.54 88 1018.6
20260831111305 73 51 3.0 3.0 0.00 0.54 0.54 88 1018.6
20260831110310 72 46 2.0 6.0 0.00 0.54 0.54 88 1018.4
20260831105806 72 18 1.0 3.0 0.00 0.54 0.54 88 1018.3
20260831105306 72 39 4.0 6.0 0.00 0.54 0.54 88 1018.3
20260831104805 72 32 4.0 6.0 0.00 0.54 0.54 89 1018.3
20260831102306 72 4 5.0 9.0 0.00 0.54 0.54 90 1017.9
20260831094805 72 12 5.0 9.0 0.00 0.54 0.54 90 1017.4
20260831094305 72 25 5.0 10.0 0.00 0.54 0.54 90 1017.6
20260831093805 72 30 6.0 12.0 0.00 0.54 0.54 90 1017.6
20260831093305 72 22 8.0 12.0 0.00 0.54 0.54 90 1017.5
20260831091806 72 32 6.0 7.0 0.01 0.54 0.54 90 1017.2
20260831091305 72 10 3.0 10.0 0.01 0.54 0.54 90 1017.3
20260831085805 72 348 6.0 7.0 0.01 0.54 0.54 91 1017.4
20260831085306 72 350 5.0 7.0 0.01 0.54 0.54 91 1017.5
20260831084306 72 319 1.0 5.0 0.01 0.54 0.54 91 1017.3
20260831082805 72 294 1.0 2.0 0.00 0.53 0.53 91 1017.4
20260831081805 72 294 2.0 3.0 0.00 0.53 0.53 91 1017.4
20260831075805 72 291 1.0 3.0 0.00 0.53 0.53 91 1017.3
20260831075306 72 289 1.0 3.0 0.00 0.53 0.53 91 1017.5
20260831074805 72 289 1.0 2.0 0.00 0.53 0.53 91 1017.4
20260831072805 72 289 1.0 3.0 0.00 0.53 0.53 91 1017.6
20260831071805 72 296 0.0 0.0 0.00 0.53 0.53 91 1017.8
20260831071307 72 296 0.0 0.0 0.00 0.53 0.53 91 1017.7
20260831070804 72 296 0.0 0.0 0.00 0.53 0.53 91 1017.8
20260831070305 71 292 0.0 2.0 0.00 0.53 0.53 91 1017.7
20260831063805 71 350 0.0 1.0 0.12 0.53 0.53 91 1017.6
20260831062805 71 350 1.0 2.0 0.15 0.53 0.53 91 1017.5
20260831060305 71 5 0.0 0.0 0.16 0.53 0.53 91 1017.9
20260831055306 71 5 0.0 3.0 0.16 0.53 0.53 90 1018.0
20260831054805 71 353 2.0 5.0 0.15 0.52 0.52 90 1018.1
20260831054305 72 270 3.0 10.0 0.19 0.49 0.49 90 1018.4
20260831053305 72 272 4.0 7.0 0.32 0.38 0.38 90 1018.5
20260831052805 72 278 2.0 6.0 0.38 0.38 0.38 90 1018.3
20260831052307 72 293 2.0 7.0 0.38 0.38 0.38 90 1018.2
20260831051306 72 334 5.0 12.0 0.38 0.38 0.38 90 1018.1
20260831050805 72 348 9.0 12.0 0.38 0.38 0.38 90 1018.1
20260831050305 72 15 7.0 12.0 0.37 0.37 0.37 90 1017.9
20260831045805 71 17 9.0 13.0 0.37 0.37 0.37 90 1018.0
20260831044805 72 28 12.0 18.0 0.37 0.37 0.37 89 1018.2
20260831044305 72 4 17.0 26.0 0.30 0.30 0.30 89 1018.3
20260831043805 72 348 26.0 33.0 0.20 0.20 0.20 88 1018.6
20260831042307 77 350 17.0 28.0 0.00 0.00 0.00 85 1018.6
20260831041805 77 258 5.0 12.0 0.00 0.00 0.00 86 1017.8
20260831035307 78 250 5.0 12.0 0.00 0.00 0.00 87 1017.4
20260831034804 78 244 5.0 10.0 0.00 0.00 0.00 86 1017.4
20260831034305 78 237 5.0 12.0 0.00 0.00 0.00 86 1017.5
20260831032806 78 240 7.0 12.0 0.00 0.00 0.00 86 1017.6
20260831032306 78 239 6.0 12.0 0.00 0.00 0.00 86 1017.6
20260831031805 78 231 6.0 14.0 0.00 0.00 0.00 86 1017.6
20260831031306 78 232 7.0 14.0 0.00 0.00 0.00 86 1017.6
20260831030805 78 232 6.0 15.0 0.00 0.00 0.00 86 1017.5
20260831030305 78 238 7.0 13.0 0.00 0.00 0.00 86 1017.5
20260831025805 78 237 8.0 14.0 0.00 0.00 0.00 86 1017.6
20260831024305 78 235 6.0 13.0 0.00 0.00 0.00 85 1017.5
20260831023305 78 233 6.0 12.0 0.00 0.00 0.00 85 1017.8
20260831022306 78 257 7.0 15.0 0.00 0.00 0.00 84 1018.0
20260831021305 78 234 10.0 16.0 0.00 0.00 0.00 84 1018.1
20260831015805 78 235 7.0 16.0 0.00 0.00 0.00 84 1018.3
20260831014805 78 230 8.0 14.0 0.00 0.00 0.00 84 1018.1
20260831013805 78 228 11.0 16.0 0.00 0.00 0.00 84 1018.1
20260831013305 78 237 7.0 15.0 0.00 0.00 0.00 84 1018.0
20260831012805 78 227 6.0 15.0 0.00 0.00 0.00 84 1018.0
20260831011805 78 235 9.0 20.0 0.00 0.00 0.00 84 1018.1
20260831005306 78 232 10.0 21.0 0.00 0.00 0.00 83 1018.2
20260831003805 78 235 6.0 14.0 0.00 0.00 0.00 83 1018.1
20260831003304 78 237 9.0 13.0 0.00 0.00 0.00 83 1018.1
20260831002306 78 233 9.0 16.0 0.00 0.00 0.00 83 1017.9
20260830235804 78 231 11.0 18.0 0.00 0.00 0.00 82 1017.8
20260830235306 78 227 7.0 16.0 0.00 0.00 0.00 82 1017.7
20260830234304 78 228 7.0 17.0 0.00 0.00 0.00 82 1017.6
20260830233805 78 233 9.0 16.0 0.00 0.00 0.00 82 1017.6
20260830233305 78 232 7.0 14.0 0.00 0.00 0.00 82 1017.6
20260830232306 78 238 7.0 16.0 0.00 0.00 0.00 82 1017.6
20260830231304 78 223 10.0 16.0 0.00 0.00 0.00 82 1017.7
20260830230805 78 231 6.0 13.0 0.00 0.00 0.00 82 1017.7
20260830230304 78 224 6.0 15.0 0.00 0.00 0.00 82 1017.8
20260830224804 79 221 8.0 15.0 0.00 0.00 0.00 81 1017.7
20260830223804 79 228 7.0 15.0 0.00 0.00 0.00 80 1017.6
20260830222306 79 223 8.0 16.0 0.00 0.00 0.00 80 1017.6
20260830221805 79 215 7.0 14.0 0.00 0.00 0.00 80 1017.6
20260830220805 78 225 8.0 16.0 0.00 0.00 0.00 81 1017.5